This demonstration page uses our WeatherBlox Daily Observations layout. Learn more.

Left ArrowRight Arrow

Hourly Observations for December 10, 2021

Temp ( °F °C ) Dew Point ( °F °C ) Humidity (%) Winds ( mph kmh ) Pressure ( in mb ) Visibility ( mi km ) Precip ( " mm )
12:56 am 00:56 Cloudy 39 4.1 26 -3.4 58 58 ENE 12 19 29.86 1011 10 16 0.00 0.00
1:56 am 01:56 Cloudy 38 3.5 25 -4 58 58 ENE 10 17 29.84 1011 10 16 0.00 0.00
2:56 am 02:56 Mostly Cloudy 38 3.2 23 -5 55 55 ENE 8 13 29.85 1011 10 16 0.00 0.00
3:56 am 03:56 Cloudy 37 2.9 23 -5 56 56 ENE 15 24 29.79 1009 10 16 0.00 0.00
4:56 am 04:56 Mostly Cloudy 37 2.7 23 -5.2 56 56 E 12 19 29.78 1008 10 16 0.00 0.00
5:56 am 05:56 Cloudy 37 2.5 22 -5.4 56 56 E 9 15 29.76 1008 10 16 0.00 0.00
6:56 am 06:56 Cloudy 37 2.5 22 -5.6 56 56 E 10 17 29.76 1008 10 16 0.00 0.00
7:56 am 07:56 undefined 37 2.5 21 -6.1 53 53 E 16 26 29.71 1006 10 16 0.00 0.00
8:56 am 08:56 Mostly Cloudy 37 3 21 -6.2 51 51 E 13 20 29.67 1005 10 16 0.00 0.00
9:56 am 09:56 Cloudy 39 4 22 -5.8 49 49 ENE 10 17 29.62 1003 10 16 0.00 0.00
10:56 am 10:56 Cloudy 39 3.9 24 -4.6 54 54 E 13 20 29.59 1002 10 16 0.00 0.00
11:45 am 11:45 Cloudy with Drizzle 39 4 25 -4 56 56 E 9 15 29.56 1001 10 16 0.00 0.00
11:56 am 11:56 Cloudy 40 4.2 27 -2.9 60 60 ENE 8 13 29.57 1001 10 16 0.00 0.00
12:56 pm 12:56 Cloudy 39 4 31 -0.8 71 71 E 10 17 29.50 999 10 16 0.00 0.00
1:56 pm 13:56 Mostly Cloudy with Drizzle 38 3.1 33 0.5 83 83 NNE 8 13 29.48 998 2 3 0.00 0.00
2:11 pm 14:11 Partly Cloudy with Mist and Fog 37 3 34 1 87 87 N 8 13 29.47 998 3 5 0.00 0.00
2:56 pm 14:56 Mostly Cloudy with Drizzle 37 2.6 34 1 89 89 NNE 6 9 29.48 998 2 3 0.00 0.00
3:56 pm 15:56 Cloudy with Drizzle 35 1.8 33 0.3 90 90 N 8 13 29.49 999 2 3 0.00 0.00
4:26 pm 16:26 Partly Cloudy with Drizzle 34 1 32 0 93 93 N 15 24 29.51 999 2 3 0.00 0.00
4:56 pm 16:56 Mostly Cloudy with Drizzle 33 0.6 30 -0.9 90 90 N 12 19 29.52 1000 2 3 0.00 0.00
5:11 pm 17:11 Mostly Cloudy with Drizzle 34 1 30 -1 87 87 N 15 24 29.52 1000 2 3 0.00 0.00
5:56 pm 17:56 Mostly Cloudy with Drizzle 33 0.3 30 -1.3 89 89 NNW 12 19 29.56 1001 2 3 0.00 0.00
6:44 pm 18:44 Cloudy with Light Snow 32 0 28 -2 87 87 N 13 20 29.56 1001 2 3 0.00 0.00
6:56 pm 18:56 Cloudy with Light Snow 32 0 28 -2.1 86 86 N 10 17 29.57 1001 2 3 0.00 0.00
7:56 pm 19:56 Mostly Cloudy with Light Snow 32 -0.2 28 -2.1 87 87 NNW 14 22 29.58 1002 2 3 0.00 0.00
8:56 pm 20:56 Mostly Cloudy with Light Snow 32 0 28 -2.2 85 85 NNW 14 22 29.61 1003 3 5 0.00 0.00
9:56 pm 21:56 Mostly Cloudy with Light Snow 31 -0.7 26 -3.4 82 82 NW 23 37 29.66 1004 3 5 0.00 0.00
10:56 pm 22:56 Cloudy with Light Snow 30 -0.9 25 -3.8 81 81 NNW 16 26 29.71 1006 3 5 0.00 0.00
11:56 pm 23:56 Cloudy with Light Snow 30 -0.9 25 -3.8 81 81 NNW 17 28 29.77 1008 4 6 0.00 0.00

Powered by AerisWeather